STARLINK-34635

Last updated on Fri Aug 08 2025 00:02:05 GMT+0000 (Coordinated Universal Time)

1 64761U 25147G 25218.91668981 .00008889 00000+0 23198-3 0 9997 2 64761 53.1607 163.4241 0001456 95.5672 342.7236 15.39617595 5934
UTC large
Height (km)
Speed (km/s)
/
Latitude / Longitude
Inclination (degrees)
Orbital Period (minutes)
Azimuth
Elevation
Range (km)
Doppler Factor

Next 0 passes for location: London (51.5072 / 0.1276)

Sorry there are no passes over London.